Date,TemperatureHighF,TemperatureAvgF,TemperatureLowF,DewpointHighF,DewpointAvgF,DewpointLowF,HumidityHigh,HumidityAvg,HumidityLow,PressureMaxIn,PressureMinIn,WindSpeedMaxMPH,WindSpeedAvgMPH,GustSpeedMaxMPH,PrecipitationSumIn
2013-2-1,50.8,33.5,19.9,29.5,19.2,10.7,75,58,35,30.48,30.20,18,6,23,0.00
2013-2-2,59.0,43.6,28.4,38.8,31.5,23.6,87,64,41,30.36,30.21,18,5,21,0.00
2013-2-3,60.1,49.4,34.0,34.0,31.0,27.5,77,51,33,30.35,29.93,15,7,22,0.00
2013-2-4,66.0,56.2,44.4,46.1,34.8,29.9,57,45,29,29.96,29.83,18,7,20,0.00
2013-2-5,67.5,50.2,36.6,53.0,41.6,29.5,95,74,48,30.06,29.93,8,2,10,0.00
2013-2-6,57.6,51.3,43.6,57.0,50.4,42.5,98,97,95,30.05,29.87,20,6,25,0.01
2013-2-7,64.4,52.8,41.6,59.3,49.7,36.1,98,89,75,30.19,29.80,31,11,37,0.05
2013-2-8,55.2,42.5,31.5,36.3,32.4,28.3,89,70,39,30.35,30.17,11,5,13,0.00
2013-2-9,47.9,42.3,38.7,47.0,38.8,33.0,97,88,78,30.17,29.72,23,11,29,0.01
2013-2-10,62.0,50.8,39.9,51.3,35.6,27.1,97,60,34,30.08,29.69,20,9,26,0.08
2013-2-11,54.1,43.1,33.8,29.6,26.8,24.5,73,54,36,30.26,30.08,21,7,24,0.00
2013-2-12,42.1,36.1,32.7,34.1,31.9,27.0,96,86,55,30.11,29.98,18,8,20,0.63
2013-2-13,55.6,41.0,32.1,40.5,32.2,24.6,97,74,32,30.15,30.03,15,5,16,0.00
2013-2-14,61.7,46.5,32.5,38.0,33.2,27.0,83,62,32,30.25,30.04,25,8,31,0.00
2013-2-15,43.3,37.3,29.6,36.7,24.4,17.8,79,61,38,30.45,30.26,22,9,26,0.00
2013-2-16,53.0,39.9,27.3,31.0,27.1,17.5,93,64,35,30.46,30.12,15,6,22,0.00
2013-2-17,71.4,53.6,36.3,35.9,30.7,26.8,74,46,21,30.12,29.75,28,12,34,0.00
2013-2-18,59.2,52.2,38.4,50.5,37.4,26.0,82,58,38,30.17,29.62,32,14,36,0.00
2013-2-19,54.1,42.6,27.7,29.8,25.0,22.0,85,52,29,30.38,30.17,12,4,15,0.00
2013-2-20,43.4,36.1,32.9,35.3,32.4,24.9,95,88,48,30.23,29.92,20,10,24,0.67
2013-2-21,43.9,34.5,24.4,40.8,32.3,19.0,96,92,81,30.07,29.71,24,8,32,0.60
2013-2-22,37.8,28.3,21.1,25.0,20.8,16.7,86,74,56,30.24,30.06,16,6,18,0.00
2013-2-23,47.8,33.5,22.5,32.1,24.8,19.0,89,72,47,30.20,29.94,11,3,13,0.00
2013-2-24,63.4,47.2,31.3,42.5,34.9,25.5,81,64,42,29.96,29.72,29,10,34,0.00
2013-2-25,49.0,39.3,33.4,39.0,35.8,31.8,95,88,63,29.78,29.51,29,14,39,0.87
2013-2-26,47.7,38.4,31.6,34.4,31.4,27.6,94,77,51,29.99,29.66,33,11,37,0.02
2013-2-27,45.5,36.3,27.9,31.0,27.9,24.5,88,73,51,30.28,29.96,26,9,30,0.00
2013-2-28,48.5,37.2,29.0,33.0,28.4,24.9,87,72,51,30.32,30.26,20,8,26,0.00